Regional Weather Roundup
Issued by NWS State College, PA

Home | Current Version | Previous Version | Graphics & Text | Print | Product List | Glossary Off
Versions: 1 2 3 4 5 6 7 8 9 10 11 12 13 14 15 16 17 18 19 20 21 22 23 24 25 26 27 28 29 30 31 32 33 34 35 36 37 38 39 40 41 42 43 44 45 46 47 48 49 50

000
ASUS41 KCTP 210403
RWRCTP

REGIONAL WEATHER ROUNDUP
NATIONAL WEATHER SERVICE STATE COLLEGE PA
1100 PM EST THU NOV 20 2014

Note: "fair" indicates few or no clouds below 12,000 feet with no
significant weather and/or obstructions to visibility.

* = STATION THAT DOES NOT REPORT PRECIPITATION /E.G. RAIN...SNOW...ETC/
    THUNDER OR FOG.

PAZ002>004-007>009-013>016-020>023-029>032-210500-
WESTERN PENNSYLVANIA

CITY           SKY/WX    TMP DP  RH WIND       PRES   REMARKS
ERIE           CLOUDY    25  13  60 W21G30    30.05R HAZE    WCI  11
MEADVILLE      SNOW      20  16  84 W9        30.03R VSB 1/2 WCI   9
FRANKLIN*      CLOUDY    19  10  68 SW12G20   30.04S WCI   7
NEW CASTLE       N/A     21  12  68 SW14G21   30.11R WCI   8
BEAVER COUNTY  NOT AVBL
BUTLER*        PTCLDY    21   9  58 SW16      30.10R WCI   7
PITTSBURGH INT PTCLDY    22  13  68 W6        30.12R WCI  14
PITTSBURGH     MOCLDY    23  10  57 W12G20    30.11R WCI  12
INDIANA*       CLEAR     21  14  73 W13       30.11R WCI   9
LATROBE        CLOUDY    25  16  68 W14       30.13R WCI  13
WASHINGTON CO* MOCLDY    25  12  58 SW8       30.14S
$$

PAZ004>006-010>012-017>019-024>028-033>037-041-042-045-046-049>053-210500-
CENTRAL PENNSYLVANIA

CITY           SKY/WX    TMP DP  RH WIND       PRES   REMARKS
BRADFORD       CLOUDY    18   9  68 W9G17     29.93R WCI   7
DUBOIS         CLEAR     18  12  77 W14       30.00R WCI   4
CLEARFIELD     CLEAR     20  11  68 W10G18    30.03R WCI   9
JOHNSTOWN      CLOUDY    20  10  65 W14       30.00R WCI   7
ALTOONA        MOCLDY    23  10  57 W18       30.04R WCI   9
STATE COLLEGE  CLEAR     23  10  57 W17G23    30.04R WCI   9
WILLIAMSPORT   CLEAR     26   8  46 W7        30.04R
SELINSGROVE    CLEAR     27   8  44 VRB3      30.06S
FT INDIANTOWN  CLEAR     28   7  40 W7        30.08R
CAPITAL CITY   CLEAR     30   8  39 NW10G23   30.09R
HARRISBURG     PTCLDY    30  11  45 W12       30.09R
YORK           PTCLDY    29  11  47 W7        30.09R
$$

PAZ038>040-043-044-047-048-054-055-060>062-067>071-210500-
EASTERN PENNSYLVANIA

CITY           SKY/WX    TMP DP  RH WIND       PRES   REMARKS
SCRANTON       CLEAR     24   7  48 SW7       29.99R
MOUNT POCONO   CLEAR     20   5  52 W13       29.92R WCI   7
ALLENTOWN      CLEAR     28   8  43 W10G17    30.04R
QUAKERTOWN*    CLEAR     28   9  43 NW10G17   30.05R
READING        CLEAR     27   9  46 NW7       30.07R
LANCASTER      CLEAR     28  10  46 NW14G23   30.07R
COATESVILLE    CLEAR     27  10  50 NW9G16    30.06R
POTTSTOWN      CLEAR     27  10  49 W6        30.08R
BLUE BELL      CLEAR     32  12  43 NW3       30.06R
DOYLESTOWN     CLEAR     27  10  49 NW9       30.05R
WILLOW GROVE   NOT AVBL
NORTH PHILA    CLEAR     32   8  36 NW9       30.08R
PHILADELPHIA   CLEAR     33   9  36 NW15G24   30.08R
$$



USA.gov is the U.S. government's official web portal to all federal, state and local government web resources and services.